Location: Drocourt
(49.0571°N, 1.7669°E)
Time: 20:43:03
(UTC+00:00)

S-56A Canister/Altair - Pass Details

Date: 16 April 2024
Orbit: 638 x 2488 km, 38.9° (Epoch: 20 May)

Event Time Altitude Azimuth Distance (km) Brightness Sun altitude
Rises 21:07:00 0° 263° (W) 4,082 11.8 -20.2°
Reaches altitude 10° 21:09:34 10° 257° (WSW) 3,337 11.1 -20.5°
Maximum altitude 21:17:39 44° 189° (S) 2,244 9.5 -21.4°
Enters shadow 21:22:24 31° 143° (SE) 2,975 9.9 -21.9°
Drops below altitude 10° 21:29:12 10° 124° (ESE) 4,725 - -22.6°
Sets 21:33:37 0° 119° (ESE) 5,923 - -23.0°
